Погода в Мариуполе

Поиск расширенной информации на нашем сайте:

Полезная информация:

Новости сайта



02.01.2020
Опубликован Долгосрочный прогноз погоды по городам России и ближнего зарубежья на январь 2020 года.
Карты: Прогноз на январь и февраль 2020 года, Сравнение прогнозируемой аномалии приземной температуры воздуха на январь 2020 года по разным моделям.




Погода в Мариуполе - сегодня

Время (UTC), дата Ветер
(°,м/с) 
Видим.   Явления Облачность Т
(°С)
Тd
(°С)
f(%) Тe
(°С)
Pmin
(гПа)
dP
(гПа)
Po
(мм)
O2
(г/м3)
Тmin Tmax R s Состояние
почвы
15 27.03.20 090 (В) 14  10 км    9/0 верхняя 
[Cs]
+13 -0.1 41 +11  1018.9  -1.1  758  291           
18 27.03.20 090 (В) 12{18}  20000 м    6/0 верхняя 
[Cs]
+11 +0.8 49 +8  1019.2  0.2  758  293    +13.2      полностью
покрыта
пылью 
21 27.03.20 090 (В) 14  20000 м    10/0 средняя 
[As op]
+11.2 -2.7 38 +8  1017.6  -1.5  757  293           
00 28.03.20 090 (В) 14-18{18}  20000 м    10/0 средняя 
[As op]
+9 -3.3 42 +6  1016.5  -1.2  756  295          полностью
покрыта
пылью 
03 28.03.20 090 (В) 14  20000 м    6/0 верхняя 
[Cc]
+7.7 -3.8 44 +4  1016  -0.5  756  297           
06 28.03.20 070 (В) 16-20{20}  20000 м    6/0 верхняя 
[Cc]
+8 -3.7 43 +4  1015.3  -0.7  755  296  +7.2         
09 28.03.20 090 (В) 14  20000 м    9/0 верхняя 
[Cs]
+10.5 -2 42 +8  1013.6  -1.6  754  293           
12 28.03.20 090 (В) 12{18}  20000 м    10/0 верхняя 
[Cc]
+13.4 +0.3 41 +11  1011.7  -1.8  753  289           
15 28.03.20 090 (В) 10  20000 м    4/0 верхняя 
[Cc]
+11.8 +1.1 48 +10  1010.3  -1.5  751  290           
18 28.03.20 090 (В) 12  20000 м    4/0 верхняя 
[Cc]
+11.6 +1.4 50 +9  1009.6  -0.7  751  290    +13.6       
21 28.03.20 090 (В) 12  20000 м    ясно 
+10.1 +0.9 53 +7  1008.6  -1  750  291           
00 29.03.20 070 (В) 10  20000 м    ясно 
+8.5 +0.5 57 +6  1007.7  -0.9  749  293           
03 29.03.20 070 (В) 10  20000 м    6/0 верхняя 
[Cc]
+7.2 +0.3 61 +4  1007.2  -0.6  749  294           
06 29.03.20 090 (В) 10  20000 м    10/0 средняя 
[Ac und]
+6.6 +1.1 68 +3  1006.9  -0.3  749  294  +6        мокрая 
09 29.03.20 090 (В) 20000 м    8/0 средняя, верхняя 
[Ac trans|Cc]
+7.5 +1.9 68 +5  1005.4  -1.4  748  293         
12 29.03.20 090 (В) 20000 м    6/0 средняя, верхняя 
[Ac trans|Cs]
+11 +4.3 63 +10  1004.1  -1.2  747  289         
15 29.03.20 тихо ()   20000 м    8/0 верхняя 
[Cc]
+11.8 +2.9 54 +12  1003  -1.1  746  288           
18 29.03.20 090 (В) 20000 м    6/0 верхняя 
[Cs]
+8.2 +0.1 57 +8  1003.5  0.4  746  292    +12       
21 29.03.20 270 (З) 20000 м    8/0 средняя, верхняя 
[Ac trans|Cs]
+6.6 +0.8 66 +6  1003.6  746  293           
00 30.03.20 270 (З) 20000 м    10/10 630 м 
[Sc]
+7.5 +3.8 77 +7  1003.3  -0.2  746  292        мокрый или
старый снег
50-90% 
03 30.03.20 тихо ()   4000 м  дымка  10/10 630 м 
[Sc]
+7 +6.6 97 +7  1003.3  746  292          полностью
покрыта
пылью 
06 30.03.20 250 (З) 2000 м  дымка  10/8 400 м средняя 
[St|As op]
+7.5 +7.3 99 +6  1003.8  0.5  747  292  +6         
09 30.03.20 180 (Ю) 4000 м  дымка  10/3 1000 м средняя 
[Sc|Ac trans]
+8.6 +7.5 93 +7  1004.1  0.3  747  290           
12 30.03.20 200 (Ю) 2000 м  дымка  5/0 верхняя 
[Cs]
+8.7 +7.2 90 +7    -0.1             
15 30.03.20 230 (ЮЗ) 10 км    8/0 средняя 
[Ac As]
+12.3 +6.9 70 +11  1004.1  0.2  747  287           
Время (UTC), дата Ветер
(°,м/с) 
Видим.   Явления Облачность Т
(°С)
Тd
(°С)
f(%) Тe
(°С)
Pmin
(гПа)
dP
(гПа)
Po
(мм)
O2
(г/м3)
Тmin Tmax R s Состояние
почвы

Для получения пояснительной информации подведите курсор к названию столбца.

ПОГОДА в Мариуполе - архив

Всё, что Вы хотите узнать о погоде в Мариуполе - удобно и подробно!

Выберите нужную дату (начиная с 1 января 2019* года) и нажмите кнопку "Найти".
Будут отображены архивные сводки погоды по пункту Мариуполь, начиная с указанной даты.


Отображать данные в формате CSV (для использования в таблицах Excel)


Внимание! Наш архив погоды предназначен исключительно для личного некоммерческого использования в познавательных целях. Если Вам необходимы официальные справки о состоянии погоды (для производственных, юридических, коммерческих и т.п. целей), обращайтесь в органы Росгидромета.

*Примечание: данная дата относится к архиву по метеостанциям СССР (Россия, СНГ, Балтия).
Архив по метеостанциям Зарубежной Европы и Азии (кроме Китая) хранится 10 дней, по другим регионам земного шара (Китай, Африка, Америка, Австралия, Океания) - 1 день.

Мариуполь - район местоположения метеостанции


Название, широта, долгота, высота метеостанции:
Мариуполь (город) 47°ш. 37.5°д. 70 м над ур. моря [Украина]

Дополнительная информация

В oтличие oт бoльшинства пoгoдных сайтoв мы публикуем пoдрoбную метеoинфoрмацию в детальнoм прoфессиoнальнoм фoрмате.

Характеристики температуры и влажнoсти вoздуха измеряются на высoте 2 м в тени вдали oт зданий и деревьев.
Скoрoсть ветра измеряется на высoте 10 м (на урoвне рoста челoвека скoрoсть ветра ниже в 1.5-2 раза). Если метеoстанция нахoдится в гoрoде или в лесу, тo скoрoсть ветра занижена на 2-4 м/с пo сравнению с oткрытым местoм. Скoрoсть ветра над акватoриями крупных рек и oзёр, а также на вершинах хoлмoв на 2-5 м/с выше, чем в oбычных услoвиях.
Атмoсфернoе давление в разных тoчках местнoсти мoжет значительнo oтличаться oт давления на метеoстанции, в зависимoсти oт услoвий рельефа (при пoдъёме на 10 м давление пoнижается примернo на 1 мм рт.ст.).